Weather Roundup
Issued by NWS Chicago, IL

Home | Current Version | Previous Version | Graphics & Text | Print | Product List | Glossary On
Versions: 1 2 3 4 5 6 7 8 9 10 11 12 13 14 15 16 17 18 19 20 21 22 23 24 25 26 27 28 29 30 31 32 33 34 35 36 37 38 39 40 41 42 43 44 45 46 47 48 49 50
000
NZUS59 KLOT 022100
HRRLOT

CHICAGO AREA WEATHER ROUNDUP
NATIONAL WEATHER SERVICE CHICAGO/ROMEOVILLE IL
400 PM CDT WED SEP 02 2015

NOTE: "FAIR" INDICATES FEW OR NO CLOUDS BELOW 12,000 FEET WITH NO
SIGNIFICANT WEATHER AND/OR OBSTRUCTIONS TO VISIBILITY.

* THESE STATIONS ARE NOT UNDER NWS QUALITY CONTROL. THEY ALSO MAY NOT
  REPORT WEATHER SUCH AS PRECIPITATION OR FOG.

ILZ005-006-012>014-019>023-022200-
NORTHEAST ILLINOIS

CITY           SKY/WX    TMP DP  RH WIND       PRES   REMARKS
OHARE          PTSUNNY   89  67  47 SW15G22   29.97F HX  92
MIDWAY         PTSUNNY   91  68  46 W10       29.97F HX  95
AURORA           N/A     87  70  56 SW8       29.99F HX  92
WAUKEGAN       NOT AVBL
DUPAGE AIRPORT   N/A     88  69  53 W12       29.98F HX  92
WHEELING         N/A     91  66  43 SW12G17   29.98F HX  93
NORTHERLY IS     N/A     88  63  43 S10         N/A  HX  89
$$

WIZ051-052-058>065-066-070>072-022200-
SOUTHEAST WISCONSIN

CITY           SKY/WX    TMP DP  RH WIND       PRES   REMARKS
MILWAUKEE      PTSUNNY   87  68  52 SW12      29.95F HX  90
KENOSHA*         N/A     88  69  53 SW8       29.97F HX  92
RACINE*          N/A     88  67  49 SW10      29.97F HX  91
WAUKESHA       SUNNY     82  68  61 SW8       29.98F HX  85
$$

INZ001>003-010>013-019-020-022200-
NORTHWEST INDIANA

CITY           SKY/WX    TMP DP  RH WIND       PRES   REMARKS
GARY*          PTSUNNY   91  64  40 W15       29.99F HX  93
MICHIGAN CITY* NOT AVBL
RENSSELAER*    NOT AVBL
$$

LMZ740>746-022200-
SOUTHERN LAKE MICHIGAN

STATION/POSITION TIME  SKY/WX   TEMP WIND        PRES    VSBY
                                AIR  DIR/SP/G
                 (UTC)          (F)  (DEG/KT/KT) (MB)    (MI)
HARRISON CRIB    2000            87  230/ 10/ 15   N/A
BURNHAM HARBOR   2000            89  190/  5/ 13   N/A
CALUMET HARBOR   2000            87  200/  9/ 12   N/A
BURNS HARBOR     2000            87  210/ 10/ 17 1016.3F
MICHIGAN CITY    2000            84  340/  4/  5   N/A
$$

ABBREVIATIONS USED IN REMARKS
   TC - TEMPERATURE IN CELSIUS
  WCI - WIND CHILL INDEX
   HX - HEAT INDEX
  VSB - VISIBILITY
$$



USA.gov is the U.S. government's official web portal to all federal, state and local government web resources and services.